Weather History for Cairns, QU

Change the Weather History Date:

Thursday, December 11, 2014

  Actual Average Record
Temperature  
Mean Temperature 83 °F -  
Max Temperature 88 °F 88 °F 93 °F (2001)
Min Temperature 78 °F 74 °F 68 °F (2013)
Cooling Degree Days 18    
Growing Degree Days 33 (Base 50)    
Moisture  
Dew Point 75 °F    
Average Humidity 76    
Maximum Humidity 94    
Minimum Humidity 57    
Precipitation  
Precipitation 0.02 in 0.35 in - ()
Sea Level Pressure  
Sea Level Pressure 29.81 in    
Wind  
Wind Speed 4 mph ()    
Max Wind Speed 13 mph    
Max Gust Speed -    
Visibility 6.5 miles    
Events      
Averages and records for this station are not official NWS values.
T = Trace of Precipitation, MM = Missing Value Source: Averaged Metar Reports

Daily Weather History Graph

Daily Weather History Graph

Search for Another Location

Airport:

Trip Planner

Search our weather history database for the weather conditions in past years. The results will help you decide how hot, cold, wet, or windy it might be!

Date:

Astronomy

Dec. 11, 2014 Rise Set
Actual Time 5:36 AM AEST 6:43 PM AEST
Civil Twilight 5:12 AM AEST 7:07 PM AEST
Nautical Twilight 4:44 AM AEST 7:35 PM AEST
Astronomical Twilight 4:15 AM AEST 8:04 PM AEST
Moon 10:22 PM AEST (12/11) 9:27 AM AEST (12/11)
Length of Visible Light 13h 54m
Length of Day
13h 06m
Waning Gibbous, 80% of the Moon is Illuminated
Dec 11
Waning Gibbous
Dec 14
Last Quarter
Dec 22
New
Dec 29
First Quarter
Jan 5
Full

Hourly Weather History & Observations

Time (AEST) Temp. Heat Index Dew Point Humidity Pressure Visibility Wind Dir Wind Speed Gust Speed Precip Events Conditions
12:00 AM 80 °F - 76 °F 84% 29.84 in - Calm Calm - -   Overcast
12:00 AM 80.6 °F 87.1 °F 77.0 °F 89% 29.83 in 6.2 mi Calm Calm - N/A   Scattered Clouds
12:30 AM 82.4 °F 89.5 °F 75.2 °F 79% 29.83 in 6.2 mi ENE 4.6 mph - N/A   Mostly Cloudy
1:00 AM 82 °F - 76 °F 78% 29.83 in - NNE 4.6 mph - -  
1:00 AM 82.4 °F 90.9 °F 77.0 °F 84% 29.80 in 6.2 mi NNE 4.6 mph - N/A   Mostly Cloudy
1:30 AM 80.6 °F 87.1 °F 77.0 °F 89% 29.80 in 6.2 mi WNW 4.6 mph - N/A   Mostly Cloudy
2:00 AM 80.6 °F 87.1 °F 77.0 °F 89% 29.80 in 6.2 mi Calm Calm - N/A   Scattered Clouds
2:30 AM 80.6 °F 87.1 °F 77.0 °F 89% 29.80 in 6.2 mi Calm Calm - N/A   Scattered Clouds
3:00 AM 81 °F - 76 °F 82% 29.81 in - WNW 4.6 mph - -   Overcast
3:00 AM 80.6 °F 87.1 °F 77.0 °F 89% 29.80 in 6.2 mi WNW 4.6 mph - N/A   Scattered Clouds
3:30 AM 80.6 °F 87.1 °F 77.0 °F 89% 29.80 in 6.2 mi West 4.6 mph - N/A   Scattered Clouds
4:00 AM 79 °F - 76 °F 88% 29.81 in - West 3.5 mph - -  
4:00 AM 78.8 °F - 77.0 °F 94% 29.80 in 6.2 mi West 3.5 mph - N/A   Scattered Clouds
4:30 AM 78.8 °F - 75.2 °F 89% 29.80 in 6.2 mi WNW 3.5 mph - N/A   Scattered Clouds
5:00 AM 78.8 °F - 75.2 °F 89% 29.80 in 6.2 mi Calm Calm - N/A   Scattered Clouds
5:30 AM 78.8 °F - 75.2 °F 89% 29.80 in 6.2 mi Calm Calm - N/A   Scattered Clouds
6:00 AM 79 °F - 76 °F 87% 29.83 in - Calm Calm - -   Overcast
6:00 AM 78.8 °F - 75.2 °F 89% 29.83 in 6.2 mi Calm Calm - N/A   Mostly Cloudy
6:30 AM 80.6 °F 87.1 °F 77.0 °F 89% 29.83 in 6.2 mi Calm Calm - N/A   Mostly Cloudy
7:00 AM 81 °F - 76 °F 80% 29.86 in - Calm Calm - -  
7:00 AM 80.6 °F 86.2 °F 75.2 °F 84% 29.86 in 6.2 mi Calm Calm - N/A   Mostly Cloudy
7:30 AM 82.4 °F 90.9 °F 77.0 °F 84% 29.86 in 6.2 mi Calm Calm - N/A   Mostly Cloudy
8:00 AM 84.2 °F 92.3 °F 75.2 °F 74% 29.86 in 6.2 mi North 1.2 mph - N/A   Mostly Cloudy
8:30 AM 84.2 °F 92.3 °F 75.2 °F 74% 29.86 in 6.2 mi ENE 5.8 mph - N/A   Mostly Cloudy
9:00 AM 86 °F - 75 °F 63% 29.87 in 19 mi NE 6.9 mph - -   Partly Cloudy
9:00 AM 86.0 °F 95.1 °F 75.2 °F 70% 29.86 in 6.2 mi NE 6.9 mph - N/A   Scattered Clouds
9:30 AM 86.0 °F 95.1 °F 75.2 °F 70% 29.86 in 6.2 mi NE 8.1 mph - N/A   Scattered Clouds
10:00 AM 87 °F - 75 °F 59% 29.87 in - North 10.4 mph - -  
10:00 AM 87.8 °F 97.6 °F 75.2 °F 66% 29.86 in 6.2 mi North 10.4 mph - N/A   Scattered Clouds
10:30 AM 87.8 °F 99.7 °F 77.0 °F 70% 29.86 in 6.2 mi NE 10.4 mph - N/A   Scattered Clouds
11:00 AM 86.0 °F 95.1 °F 75.2 °F 70% 29.86 in 6.2 mi NNE 11.5 mph - N/A   Mostly Cloudy
11:30 AM 87.8 °F 99.7 °F 77.0 °F 70% 29.83 in 6.2 mi North 10.4 mph - N/A   Mostly Cloudy
12:00 PM 88 °F - 75 °F 58% 29.83 in - NNE 11.5 mph - -  
12:00 PM 87.8 °F 97.6 °F 75.2 °F 66% 29.83 in 6.2 mi North 11.5 mph - N/A   Scattered Clouds
12:30 PM 87.8 °F 97.6 °F 75.2 °F 66% 29.80 in 6.2 mi NNE 11.5 mph - N/A   Scattered Clouds
1:00 PM 87 °F - 74 °F 57% 29.81 in - North 12.7 mph - -  
1:00 PM 87.8 °F 95.6 °F 73.4 °F 62% 29.80 in 6.2 mi North 12.7 mph - N/A   Scattered Clouds
1:30 PM 87.8 °F 97.6 °F 75.2 °F 66% 29.80 in 6.2 mi NNE 12.7 mph - N/A   Partly Cloudy
2:00 PM 87.8 °F 97.6 °F 75.2 °F 66% 29.77 in 6.2 mi North 11.5 mph - N/A   Scattered Clouds
2:30 PM 87.8 °F 95.6 °F 73.4 °F 62% 29.77 in 6.2 mi North 10.4 mph - N/A   Scattered Clouds
3:00 PM 87 °F - 75 °F 60% 29.75 in 22 mi NNE 9.2 mph - -   Partly Cloudy
3:00 PM 86.0 °F 95.1 °F 75.2 °F 70% 29.74 in 6.2 mi NNE 9.2 mph - N/A   Mostly Cloudy
3:30 PM 87.8 °F 97.6 °F 75.2 °F 66% 29.74 in 6.2 mi North 10.4 mph - N/A   Mostly Cloudy
4:00 PM 86 °F - 74 °F 61% 29.74 in - North 10.4 mph - -  
4:00 PM 86.0 °F 95.1 °F 75.2 °F 70% 29.74 in 6.2 mi North 10.4 mph - N/A   Mostly Cloudy
4:30 PM 84.2 °F 92.3 °F 75.2 °F 74% 29.74 in 6.2 mi North 9.2 mph - N/A   Mostly Cloudy
5:00 PM 84.2 °F 92.3 °F 75.2 °F 74% 29.74 in 6.2 mi North 9.2 mph - N/A   Mostly Cloudy
5:30 PM 84.2 °F 92.3 °F 75.2 °F 74% 29.74 in 6.2 mi North 6.9 mph - N/A   Mostly Cloudy
6:00 PM 83 °F - 75 °F 70% 29.76 in - North 5.8 mph - -   Overcast
6:00 PM 84.2 °F 92.3 °F 75.2 °F 74% 29.74 in 6.2 mi North 5.8 mph - N/A   Mostly Cloudy
6:30 PM 82.4 °F 89.5 °F 75.2 °F 79% 29.77 in 6.2 mi NNE 5.8 mph - N/A   Mostly Cloudy
7:00 PM 83 °F - 75 °F 71% 29.77 in - North 6.9 mph - -  
7:00 PM 82.4 °F 89.5 °F 75.2 °F 79% 29.77 in 6.2 mi North 6.9 mph - N/A   Mostly Cloudy
7:30 PM 82.4 °F 89.5 °F 75.2 °F 79% 29.77 in 6.2 mi North 5.8 mph - N/A   Mostly Cloudy
8:00 PM 82.4 °F 89.5 °F 75.2 °F 79% 29.77 in 6.2 mi NW 4.6 mph - N/A   Mostly Cloudy
8:30 PM 82.4 °F 89.5 °F 75.2 °F 79% 29.80 in 6.2 mi West 5.8 mph - N/A   Mostly Cloudy
9:00 PM 82 °F - 74 °F 72% 29.80 in - West 5.8 mph - -   Overcast
9:00 PM 82.4 °F 89.5 °F 75.2 °F 79% 29.80 in 6.2 mi West 5.8 mph - N/A   Mostly Cloudy
9:30 PM 82.4 °F 89.5 °F 75.2 °F 79% 29.80 in 6.2 mi West 5.8 mph - N/A   Mostly Cloudy
10:00 PM 82 °F - 75 °F 74% 29.83 in - WSW 5.8 mph - -  
10:00 PM 82.4 °F 89.5 °F 75.2 °F 79% 29.80 in 6.2 mi WSW 5.8 mph - N/A   Scattered Clouds
10:30 PM 82.4 °F 89.5 °F 75.2 °F 79% 29.80 in 6.2 mi West 4.6 mph - N/A   Scattered Clouds
11:00 PM 82.4 °F 89.5 °F 75.2 °F 79% 29.80 in 6.2 mi West 3.5 mph - N/A   Scattered Clouds
11:30 PM 82.4 °F 89.5 °F 75.2 °F 79% 29.80 in 6.2 mi West 4.6 mph - N/A   Scattered Clouds